• In Russia
  • List of Countries
  • For 7 days
  • Water Temperature
  • Satellite Maps
  • Weather Map
  • Weather Widgets
  • user-avatar
    Login

    Hourly Weather Yulara

    Today, 22 September, Saturday

    Time Temperature Precipitation Wind Pressure Humidity
    00:00 +14°C° 0 mm 3 mps 724 mmHg 43%
    01:00 +14°C° 0 mm 4 mps 724 mmHg 45%
    02:00 +13°C° 0 mm 4 mps 724 mmHg 46%
    03:00 +13°C° 0 mm 4 mps 723 mmHg 51%
    04:00 +12°C° 0 mm 4 mps 724 mmHg 52%
    05:00 +12°C° 0 mm 4 mps 724 mmHg 54%
    06:00 +12°C° 0 mm 4 mps 724 mmHg 56%
    07:00 +14°C° 0 mm 5 mps 724 mmHg 49%
    08:00 +17°C° 0 mm 5 mps 725 mmHg 42%
    09:00 +20°C° 0 mm 6 mps 725 mmHg 34%
    10:00 +22°C° 0 mm 6 mps 725 mmHg 31%
    11:00 +23°C° 0 mm 6 mps 725 mmHg 27%
    12:00 +26°C° 0 mm 6 mps 724 mmHg 24%
    13:00 +27°C° 0 mm 6 mps 724 mmHg 23%
    14:00 +27°C° 0 mm 5 mps 723 mmHg 21%
    15:00 +28°C° 0 mm 5 mps 723 mmHg 20%
    16:00 +27°C° 0 mm 5 mps 723 mmHg 21%
    17:00 +27°C° 0 mm 4 mps 723 mmHg 22%
    18:00 +26°C° 0 mm 4 mps 723 mmHg 23%
    19:00 +25°C° 0 mm 4 mps 723 mmHg 25%
    20:00 +23°C° 0 mm 4 mps 724 mmHg 27%
    21:00 +21°C° 0 mm 5 mps 724 mmHg 28%
    22:00 +21°C° 0 mm 5 mps 724 mmHg 29%
    23:00 +20°C° 0 mm 6 mps 724 mmHg 30%

    Tomorrow, 23 September, Sunday

    Time Temperature Precipitation Wind Pressure Humidity
    00:00 +20°C° 0 mm 6 mps 724 mmHg 30%
    01:00 +19°C° 0 mm 6 mps 724 mmHg 31%
    02:00 +17°C° 0 mm 5 mps 724 mmHg 31%
    03:00 +17°C° 0 mm 5 mps 723 mmHg 32%
    04:00 +16°C° 0 mm 5 mps 724 mmHg 32%
    05:00 +16°C° 0 mm 5 mps 724 mmHg 32%
    06:00 +15°C° 0 mm 4 mps 724 mmHg 32%
    07:00 +17°C° 0 mm 6 mps 724 mmHg 27%
    08:00 +21°C° 0 mm 7 mps 724 mmHg 23%
    09:00 +23°C° 0 mm 8 mps 725 mmHg 18%
    10:00 +26°C° 0 mm 7 mps 724 mmHg 17%
    11:00 +27°C° 0 mm 7 mps 724 mmHg 17%
    12:00 +29°C° 0 mm 6 mps 724 mmHg 16%
    13:00 +29°C° 0 mm 5 mps 723 mmHg 15%
    14:00 +29°C° 0 mm 4 mps 722 mmHg 15%
    15:00 +30°C° 0 mm 3 mps 722 mmHg 14%
    16:00 +29°C° 0 mm 3 mps 722 mmHg 15%
    17:00 +28°C° 0 mm 3 mps 722 mmHg 15%
    18:00 +28°C° 0 mm 3 mps 722 mmHg 16%
    19:00 +26°C° 0 mm 3 mps 722 mmHg 17%
    20:00 +25°C° 0 mm 4 mps 723 mmHg 18%
    21:00 +23°C° 0 mm 4 mps 723 mmHg 19%
    22:00 +22°C° 0 mm 5 mps 723 mmHg 20%
    23:00 +22°C° 0 mm 5 mps 723 mmHg 21%

    Day after tomorrow, 24 September, Monday

    Time Temperature Precipitation Wind Pressure Humidity
    00:00 +21°C° 0 mm 5 mps 723 mmHg 21%
    01:00 +20°C° 0 mm 5 mps 723 mmHg 22%
    02:00 +20°C° 0 mm 5 mps 723 mmHg 23%
    03:00 +19°C° 0 mm 5 mps 722 mmHg 24%
    04:00 +17°C° 0 mm 5 mps 722 mmHg 25%
    05:00 +17°C° 0 mm 5 mps 723 mmHg 26%
    06:00 +16°C° 0 mm 5 mps 723 mmHg 27%
    07:00 +19°C° 0 mm 6 mps 723 mmHg 24%
    08:00 +22°C° 0 mm 7 mps 724 mmHg 21%
    09:00 +24°C° 0 mm 9 mps 724 mmHg 19%
    10:00 +27°C° 0 mm 8 mps 724 mmHg 17%
    11:00 +28°C° 0 mm 7 mps 724 mmHg 15%
    12:00 +30°C° 0 mm 7 mps 723 mmHg 13%
    13:00 +30°C° 0 mm 6 mps 723 mmHg 13%
    14:00 +30°C° 0 mm 6 mps 722 mmHg 13%
    15:00 +32°C° 0 mm 6 mps 721 mmHg 13%
    16:00 +30°C° 0 mm 5 mps 721 mmHg 14%
    17:00 +29°C° 0 mm 5 mps 721 mmHg 15%
    18:00 +28°C° 0 mm 4 mps 721 mmHg 16%
    19:00 +27°C° 0 mm 5 mps 722 mmHg 18%
    20:00 +25°C° 0 mm 5 mps 722 mmHg 19%
    21:00 +23°C° 0 mm 5 mps 723 mmHg 21%
    22:00 +22°C° 0 mm 5 mps 723 mmHg 22%
    23:00 +21°C° 0 mm 5 mps 723 mmHg 23%

    25 September, Tuesday

    Time Temperature Precipitation Wind Pressure Humidity
    00:00 +21°C° 0 mm 5 mps 723 mmHg 24%
    01:00 +20°C° 0 mm 5 mps 722 mmHg 25%
    02:00 +19°C° 0 mm 5 mps 722 mmHg 26%
    03:00 +19°C° 0 mm 5 mps 722 mmHg 27%
    04:00 +17°C° 0 mm 5 mps 722 mmHg 28%
    05:00 +16°C° 0 mm 5 mps 722 mmHg 29%
    06:00 +17°C° 0 mm 4 mps 722 mmHg 30%
    07:00 +19°C° 0 mm 5 mps 723 mmHg 27%
    08:00 +21°C° 0 mm 6 mps 723 mmHg 23%
    09:00 +23°C° 0 mm 7 mps 724 mmHg 20%
    10:00 +26°C° 0 mm 6 mps 723 mmHg 18%
    11:00 +27°C° 0 mm 6 mps 723 mmHg 17%
    12:00 +29°C° 0 mm 5 mps 722 mmHg 15%
    13:00 +29°C° 0 mm 5 mps 721 mmHg 14%
    14:00 +30°C° 0 mm 4 mps 721 mmHg 13%
    15:00 +30°C° 0 mm 4 mps 720 mmHg 12%
    16:00 +29°C° 0 mm 3 mps 720 mmHg 13%
    17:00 +29°C° 0 mm 3 mps 720 mmHg 14%
    18:00 +28°C° 0 mm 3 mps 720 mmHg 14%
    19:00 +27°C° 0 mm 3 mps 720 mmHg 15%
    20:00 +25°C° 0 mm 3 mps 721 mmHg 16%
    21:00 +24°C° 0 mm 3 mps 721 mmHg 17%
    22:00 +22°C° 0 mm 3 mps 721 mmHg 17%
    23:00 +21°C° 0 mm 3 mps 721 mmHg 17%

    26 September, Wednesday

    Time Temperature Precipitation Wind Pressure Humidity
    00:00 +21°C° 0 mm 4 mps 721 mmHg 17%
    01:00 +20°C° 0 mm 4 mps 721 mmHg 18%
    02:00 +19°C° 0 mm 4 mps 720 mmHg 19%
    03:00 +18°C° 0 mm 4 mps 720 mmHg 20%
    04:00 +18°C° 0 mm 4 mps 720 mmHg 20%
    05:00 +17°C° 0 mm 3 mps 720 mmHg 21%
    06:00 +16°C° 0 mm 3 mps 720 mmHg 22%
    07:00 +19°C° 0 mm 4 mps 721 mmHg 19%
    08:00 +21°C° 0 mm 4 mps 721 mmHg 17%
    09:00 +25°C° 0 mm 5 mps 722 mmHg 14%
    10:00 +27°C° 0 mm 4 mps 721 mmHg 13%
    11:00 +28°C° 0 mm 3 mps 721 mmHg 12%
    12:00 +30°C° 0 mm 2 mps 721 mmHg 11%
    13:00 +31°C° 0 mm 2 mps 720 mmHg 11%
    14:00 +32°C° 0 mm 2 mps 719 mmHg 10%
    15:00 +33°C° 0 mm 3 mps 719 mmHg 10%
    16:00 +31°C° 0 mm 3 mps 719 mmHg 11%
    17:00 +31°C° 0 mm 2 mps 719 mmHg 12%
    18:00 +30°C° 0 mm 2 mps 719 mmHg 13%
    19:00 +29°C° 0 mm 3 mps 719 mmHg 14%
    20:00 +27°C° 0 mm 3 mps 720 mmHg 14%
    21:00 +26°C° 0 mm 3 mps 720 mmHg 15%
    22:00 +25°C° 0 mm 3 mps 720 mmHg 15%
    23:00 +25°C° 0 mm 3 mps 719 mmHg 15%

    27 September, Thursday

    Time Temperature Precipitation Wind Pressure Humidity
    00:00 +24°C° 0 mm 3 mps 719 mmHg 15%
    01:00 +22°C° 0 mm 3 mps 719 mmHg 16%
    02:00 +21°C° 0 mm 2 mps 718 mmHg 17%
    03:00 +20°C° 0 mm 2 mps 718 mmHg 18%
    04:00 +20°C° 0 mm 2 mps 718 mmHg 17%
    05:00 +19°C° 0 mm 2 mps 718 mmHg 17%
    06:00 +19°C° 0 mm 3 mps 718 mmHg 17%
    07:00 +21°C° 0 mm 3 mps 719 mmHg 15%
    08:00 +25°C° 0 mm 3 mps 719 mmHg 13%
    09:00 +28°C° 0 mm 3 mps 720 mmHg 10%
    10:00 +30°C° 0 mm 4 mps 719 mmHg 10%
    11:00 +33°C° 0 mm 4 mps 719 mmHg 9%
    12:00 +35°C° 0 mm 5 mps 718 mmHg 9%
    13:00 +35°C° 0 mm 4 mps 717 mmHg 8%
    14:00 +36°C° 0 mm 4 mps 717 mmHg 8%
    15:00 +36°C° 0 mm 4 mps 716 mmHg 8%
    16:00 +35°C° 0 mm 4 mps 716 mmHg 8%
    17:00 +34°C° 0 mm 3 mps 716 mmHg 9%
    18:00 +32°C° 0 mm 2 mps 716 mmHg 10%
    19:00 +31°C° 0 mm 3 mps 716 mmHg 11%
    20:00 +30°C° 0 mm 3 mps 716 mmHg 11%
    21:00 +28°C° 0 mm 3 mps 717 mmHg 11%
    22:00 +28°C° 0 mm 3 mps 716 mmHg 12%
    23:00 +27°C° 0 mm 4 mps 716 mmHg 13%
    Show more